Location: Moonridge Observatory
(39.2268°N, 77.7914°W)
Time: 17:21:26
(UTC-04:00)

CZ-2C R/B - Visible Passes

Search period start: 03 August 2015 00:00
Search period end: 13 August 2015 00:00
Orbit: 703 x 910 km, 98.1° (Epoch: 03 August)

Date Brightness Start Highest point End Pass type
(mag) Time Alt. Az. Time Alt. Az. Time Alt. Az.
03 Aug 3.9 02:27:58 40° ENE 02:27:58 40° ENE 02:32:11 10° N visible
03 Aug 4.6 04:09:02 18° WNW 04:09:02 18° WNW 04:11:13 10° NW visible
04 Aug 4.7 02:03:05 24° ENE 02:03:05 24° ENE 02:06:57 10° NNE visible
04 Aug 4.0 03:44:10 29° WNW 03:44:10 29° WNW 03:47:14 10° NNW visible
05 Aug 5.3 01:38:13 14° ENE 01:38:35 14° ENE 01:41:12 10° NNE visible
05 Aug 3.5 03:19:17 46° NW 03:19:17 46° NW 03:22:51 10° NNW visible
06 Aug 3.4 02:54:25 55° N 02:54:25 55° N 02:58:10 10° N visible
07 Aug 4.0 02:29:32 39° NE 02:29:32 39° NE 02:33:16 10° N visible
07 Aug 4.8 04:10:37 15° WNW 04:10:37 15° WNW 04:12:10 10° NW visible
08 Aug 4.7 02:04:40 24° ENE 02:04:40 24° ENE 02:08:05 10° NNE visible
08 Aug 4.3 03:45:44 25° WNW 03:45:44 25° WNW 03:48:16 10° NNW visible
09 Aug 5.3 01:39:46 15° ENE 01:39:46 15° ENE 01:42:22 10° NNE visible
09 Aug 3.8 03:20:51 37° NW 03:20:51 37° NW 03:23:54 10° NNW visible
10 Aug 3.8 02:55:58 45° N 02:55:58 45° N 02:59:16 10° N visible
11 Aug 4.2 02:31:05 36° NNE 02:31:05 36° NNE 02:34:23 10° N visible
11 Aug 4.9 04:12:11 13° WNW 04:12:11 13° WNW 04:13:07 10° NW visible
12 Aug 4.8 02:06:12 24° NE 02:06:12 24° NE 02:09:12 10° NNE visible
12 Aug 4.5 03:47:17 21° NW 03:47:17 21° NW 03:49:18 10° NW visible
